Location: Brusselsch Zeekanaal
(50.8667°N, 4.3667°E)
Time: 08:46:32
(UTC+00:00)

Cosmos 2322 - Pass Details

Date: 08 November 2025
Orbit: 841 x 852 km, 71.0° (Epoch: 11 December)

Event Time Altitude Azimuth Distance (km) Brightness Sun altitude
Exits shadow 04:49:46 13° 219° (SW) 2,267 5.6 -18.5°
Maximum altitude 04:54:53 70° 302° (WNW) 899 3.6 -17.7°
Drops below altitude 10° 05:00:33 10° 27° (NNE) 2,475 6.4 -16.9°
Sets 05:03:02 0° 30° (NNE) 3,412 7.2 -16.5°
